Regional Weather Roundup
Issued by NWS Burlington, VT

Home | Current Version | Previous Version | Text Only | Print | Product List | Glossary On
Versions: 1 2 3 4 5 6 7 8 9 10 11 12 13 14 15 16 17 18 19 20 21 22 23 24 25 26 27 28 29 30 31 32 33 34 35 36 37 38 39 40 41 42 43 44 45 46 47 48 49 50
000
ASUS41 KBTV 261030
RWRBTV
VERMONT REGIONAL WEATHER ROUNDUP
NATIONAL WEATHER SERVICE BURLINGTON VT
600 AM EDT SUN MAR 26 2017

NOTE: "FAIR" INDICATES FEW OR NO CLOUDS BELOW 12,000 FEET WITH NO
SIGNIFICANT WEATHER AND/OR OBSTRUCTIONS TO VISIBILITY.

* THESE REPORTS ARE NOT UNDER NWS QUALITY CONTROL AND/OR DO NOT
  REPORT WEATHER SUCH AS PRECIPITATION AND FOG.

VTZ001>019-261100-
_____VERMONT_____


CITY           SKY/WX    TMP DP  RH WIND       PRES   REMARKS
BURLINGTON     CLOUDY    18  14  84 CALM      30.50S
MONTPELIER     CLOUDY    11   9  92 S3        30.52R
MORRISVILLE    CLOUDY     3  -1  83 CALM      30.52R
ST. JOHNSBURY*   N/A     10   7  87 MISG      30.50R
LYNDONVILLE*   FAIR       8   6  88 SW5       30.49S WCI   0
MIDDLEBURY*    FAIR      16  13  85 CALM      30.49R
RUTLAND*       PTCLDY    19  16  88 CALM      30.47R
SPRINGFIELD    PTCLDY    21  17  84 CALM      30.51R
HIGHGATE*      FAIR      10   8  91 SE3       30.51S
NEWPORT*       FAIR       7   4  89 CALM      30.50S
BENNINGTON     CLOUDY    22  18  85 CALM      30.44R
SUTTON*          N/A     14 N/A N/A MISG        N/A
ISLAND POND*     N/A     -8 N/A N/A CALM        N/A
GALLUP MILLS*    N/A      1 N/A N/A MISG        N/A
UNION VILLAGE*   N/A     16 N/A N/A MISG        N/A
MT. MANSFIELD*   N/A     19 N/A N/A SE6         N/A  WCI  11

_____LAKE CHAMPLAIN_____


CITY           SKY/WX    TMP DP  RH WIND       PRES   REMARKS
BURTON ISLAND*   N/A     16  14  93 E1          N/A
COLCHESTER RF*   N/A     25  23  93 NW7         N/A  WCI  17
DIAMOND ISL*     N/A     28  25  86 N5          N/A  WCI  23

$$

NYZ007-026>031-035-052-083-087-261100-
_____NORTHERN NEW YORK_____


CITY           SKY/WX    TMP DP  RH WIND       PRES   REMARKS
PLATTSBURGH    CLOUDY    12   9  87 VRB3      30.51R
SARANAC LAKE   CLOUDY     3   1  91 CALM      30.36S
MASSENA        CLOUDY    20  16  84 E6        30.49R WCI  12
STARK FALLS*     N/A     19 N/A N/A E3          N/A
WATERTOWN      CLOUDY    29  27  92 E9        30.37F WCI  20
FT DRUM        MOCLDY    27  23  85 E5        30.36R WCI  22
ALBANY         CLOUDY    27  17  66 CALM      30.48R
GLENS FALLS    CLOUDY    19  16  88 CALM      30.48R

$$
NHZ002-005-011-261100-
_____NEW HAMPSHIRE_____


CITY           SKY/WX    TMP DP  RH WIND       PRES   REMARKS
LEBANON        CLOUDY    17  15  92 CALM      30.51R
KEENE          PTCLDY    19  18  93 CALM      30.51R FOG
MT WASHINGTON  PTCLDY    18 -31  10 W17         N/A  WCI   2
PLYMOUTH       FAIR      13  11  92 CALM      30.53R
WHITEFIELD     CLOUDY     1  -4  79 CALM      30.48R

$$

_____REGIONAL QUEBEC LOCATIONS_____


CITY           SKY/WX    TMP DP  RH WIND       PRES   REMARKS
MONTREAL       CLEAR     21   3  45 NE15      30.55R WCI   8
QUEBEC CITY    PTCLDY    12  -2  52 N5        30.57R WCI   4
SHERBROOKE     CLEAR      3   0  85 CALM      30.52R

_____REGIONAL ONTARIO LOCATIONS_____


CITY           SKY/WX    TMP DP  RH WIND       PRES   REMARKS
OTTAWA         PTCLDY    21  12  68 E12       30.47R WCI   9

______KEY______
VSB  - VISIBILITY IN MILES
WCI  - WIND CHILL INDEX
HX   - HEAT INDEX
$$
NNNN




USA.gov is the U.S. government's official web portal to all federal, state and local government web resources and services.